Location: Unspecified
(0.0000°N, 0.0000°E)
Time: 09:29:18
(UTC+00:00)

BlueWalker 3 - Pass Details

Date: 09 November 2025
Orbit: 456 x 463 km, 53.2° (Epoch: 13 November)

Event Time Altitude Azimuth Distance (km) Brightness Sun altitude
Rises 19:56:18 0° 231° (SW) 2,480 6.5 -31.5°
Reaches altitude 10° 19:58:37 10° 242° (WSW) 1,604 5.3 -32.0°
Enters shadow 19:59:23 15° 250° (WSW) 1,344 4.9 -32.2°
